KB9MLJ Weather Reports


time (UTC)temp
C
wind
direction
speed
KPH
gust
KPH
rain 1hr
cm
rain 24hr
cm
rain mn
cm
humidity
%
barometer
mb
20260906022655 22 93 8.0 11.3 0.00 0.00 0.00 92 1015.7
20260906022151 22 103 3.2 4.8 0.00 0.00 0.00 92 1015.7
20260906021647 22 95 8.0 9.7 0.00 0.00 0.00 91 1015.7
20260906021146 22 79 6.4 8.0 0.00 0.00 0.00 91 1015.7
20260906020641 22 111 4.8 8.0 0.00 0.00 0.00 91 1016.1
20260906020135 22 98 9.7 14.5 0.00 0.00 0.00 91 1015.7
20260906015630 22 81 6.4 9.7 0.00 0.00 0.00 90 1015.7
20260906015129 22 103 6.4 8.0 0.00 0.00 0.00 90 1015.7
20260906014628 22 80 6.4 11.3 0.00 0.00 0.00 89 1015.7
20260906014125 22 118 11.3 12.9 0.00 0.00 0.00 89 1015.7
20260906013620 22 92 3.2 4.8 0.00 0.00 0.00 89 1015.7
20260906013116 22 93 4.8 11.3 0.00 0.00 0.00 88 1016.1
20260906012610 22 90 8.0 12.9 0.00 0.00 0.00 88 1016.1
20260906012105 22 82 4.8 8.0 0.00 0.00 0.00 88 1015.7
20260906011601 23 97 6.4 8.0 0.00 0.00 0.00 88 1015.7
20260906011100 23 76 4.8 8.0 0.00 0.00 0.00 88 1015.4
20260906010556 23 90 8.0 11.3 0.00 0.00 0.00 90 1015.4
20260906010052 23 83 6.4 9.7 0.00 0.00 0.00 89 1015.4
20260906005551 23 92 8.0 11.3 0.00 0.00 0.00 90 1015.4
20260906005050 23 84 6.4 9.7 0.00 0.00 0.00 90 1015.0
20260906004550 23 94 11.3 12.9 0.00 0.00 0.00 90 1014.7
20260906004045 23 89 3.2 3.2 0.00 0.00 0.00 90 1015.0
20260906003540 23 118 4.8 4.8 0.00 0.00 0.00 90 1014.7
20260906003036 23 89 3.2 3.2 0.00 0.00 0.00 90 1014.7
20260906002531 23 104 3.2 8.0 0.00 0.00 0.00 89 1014.7
20260906002025 23 95 9.7 11.3 0.00 0.00 0.00 89 1014.7
20260906001521 23 102 3.2 4.8 0.00 0.00 0.00 89 1014.7
20260906001021 23 114 6.4 8.0 0.00 0.00 0.00 88 1014.7
20260906000517 23 92 4.8 4.8 0.00 0.00 0.00 88 1015.0
20260906000012 24 100 3.2 3.2 0.00 0.00 0.00 88 1014.7
20260905235511 24 107 3.2 3.2 0.00 0.00 0.00 87 1014.7
20260905235007 24 93 3.2 4.8 0.00 0.00 0.00 87 1014.7
20260905234503 25 99 3.2 4.8 0.00 0.00 0.00 86 1015.0
20260905234002 25 114 8.0 9.7 0.00 0.00 0.00 86 1014.7
20260905233458 25 95 4.8 8.0 0.00 0.00 0.00 86 1014.7
20260905232956 25 79 4.8 4.8 0.00 0.00 0.00 85 1014.7
20260905232453 25 93 4.8 4.8 0.00 0.00 0.00 84 1014.7
20260905231948 25 78 6.4 9.7 0.00 0.00 0.00 84 1014.4
20260905231444 25 103 3.2 9.7 0.00 0.00 0.00 84 1014.4
20260905230940 26 113 3.2 8.0 0.00 0.00 0.00 83 1014.4
20260905230438 26 67 4.8 8.0 0.00 0.00 0.00 83 1014.0
20260905225937 26 98 4.8 8.0 0.00 0.00 0.00 82 1014.4
20260905225432 26 98 3.2 3.2 0.00 0.00 0.00 82 1014.4
20260905224927 26 81 8.0 12.9 0.00 0.00 0.00 81 1014.4
20260905224423 26 112 4.8 8.0 0.00 0.00 0.00 81 1014.0
20260905223922 27 56 4.8 8.0 0.00 0.00 0.00 80 1014.4
20260905223421 27 115 4.8 4.8 0.00 0.00 0.00 80 1013.7
20260905222920 26 92 4.8 4.8 0.00 0.00 0.00 81 1014.4
20260905222420 27 114 9.7 14.5 0.00 0.00 0.00 80 1014.4
20260905221916 27 88 3.2 3.2 0.00 0.00 0.00 80 1014.0
20260905221412 27 100 6.4 9.7 0.00 0.00 0.00 80 1014.4
20260905220908 27 100 9.7 12.9 0.00 0.00 0.00 80 1014.4
20260905220404 26 91 4.8 8.0 0.00 0.00 0.00 82 1014.0
20260905215903 27 97 6.4 9.7 0.00 0.00 0.00 81 1014.0
20260905215359 27 108 9.7 12.9 0.00 0.00 0.00 80 1014.0
20260905214855 28 93 4.8 8.0 0.00 0.00 0.00 78 1014.0
20260905214350 28 110 4.8 4.8 0.00 0.00 0.00 78 1014.0
20260905213845 28 95 6.4 8.0 0.00 0.00 0.00 78 1013.7
20260905213342 28 112 8.0 9.7 0.00 0.00 0.00 77 1013.7
20260905212841 28 102 4.8 8.0 0.00 0.00 0.00 77 1013.7
20260905212336 28 95 8.0 9.7 0.00 0.00 0.00 77 1014.0
20260905211835 28 91 6.4 9.7 0.00 0.00 0.00 76 1013.7
20260905211332 28 101 8.0 11.3 0.00 0.00 0.00 76 1013.7
20260905210828 28 97 6.4 8.0 0.00 0.00 0.00 76 1013.7
20260905210327 28 83 11.3 14.5 0.00 0.00 0.00 75 1013.7
20260905205826 28 106 4.8 8.0 0.00 0.00 0.00 75 1014.0
20260905205321 28 76 11.3 14.5 0.00 0.00 0.00 76 1013.7
20260905204820 28 80 4.8 8.0 0.00 0.00 0.00 76 1013.7
20260905204317 29 44 6.4 9.7 0.00 0.00 0.00 75 1014.0
20260905203815 28 62 6.4 9.7 0.00 0.00 0.00 76 1013.7
20260905203312 28 106 6.4 8.0 0.00 0.00 0.00 76 1014.0
20260905202807 28 107 4.8 12.9 0.00 0.00 0.00 76 1013.7
20260905202302 29 116 6.4 9.7 0.00 0.00 0.00 76 1014.0
20260905201758 28 103 8.0 11.3 0.00 0.00 0.00 76 1014.0
20260905200753 30 116 6.4 9.7 0.00 0.00 0.00 74 1013.7
20260905200249 30 78 1.6 1.6 0.00 0.00 0.00 74 1013.7
20260905195746 29 107 3.2 4.8 0.00 0.00 0.00 73 1013.7
20260905195242 30 101 3.2 4.8 0.00 0.00 0.00 74 1013.7
20260905194737 30 120 4.8 8.0 0.00 0.00 0.00 73 1013.7
20260905194237 30 101 6.4 8.0 0.00 0.00 0.00 74 1013.7
20260905193736 29 102 4.8 4.8 0.00 0.00 0.00 75 1013.7
20260905193231 30 105 4.8 9.7 0.00 0.00 0.00 72 1013.7
20260905192727 31 132 8.0 9.7 0.00 0.00 0.00 71 1013.7
20260905192223 30 199 8.0 11.3 0.00 0.00 0.00 72 1013.7
20260905191722 31 149 0.0 1.6 0.00 0.00 0.00 72 1014.0
20260905191220 31 83 4.8 4.8 0.00 0.00 0.00 71 1013.7
20260905190720 30 156 8.0 11.3 0.00 0.00 0.00 72 1013.7
20260905190218 30 105 6.4 9.7 0.00 0.00 0.00 72 1013.7
20260905185718 30 75 6.4 9.7 0.00 0.00 0.00 74 1014.0
20260905185213 30 95 4.8 8.0 0.00 0.00 0.00 75 1013.7
20260905184707 30 99 3.2 3.2 0.00 0.00 0.00 74 1014.0
20260905184206 30 76 14.5 17.7 0.00 0.00 0.00 74 1013.7
20260905183706 30 106 4.8 4.8 0.00 0.00 0.00 74 1013.7
20260905183201 30 96 8.0 11.3 0.00 0.00 0.00 75 1014.0
20260905182701 31 101 4.8 4.8 0.00 0.00 0.00 75 1014.0
20260905182200 30 83 8.0 11.3 0.00 0.00 0.00 75 1014.0
20260905181656 30 88 11.3 14.5 0.00 0.00 0.00 77 1013.7
20260905181155 30 100 6.4 9.7 0.00 0.00 0.00 78 1014.0
20260905180649 30 82 11.3 12.9 0.00 0.00 0.00 75 1014.0
20260905180145 30 95 1.6 3.2 0.00 0.00 0.00 76 1014.0
20260905175644 31 103 4.8 4.8 0.00 0.00 0.00 77 1014.0
20260905175139 30 109 3.2 4.8 0.00 0.00 0.00 76 1014.0
20260905174635 31 141 3.2 3.2 0.00 0.00 0.00 74 1014.0
20260905174130 30 89 8.0 9.7 0.00 0.00 0.00 77 1014.0
20260905173626 30 74 4.8 8.0 0.00 0.00 0.00 78 1013.7
20260905173122 30 95 1.6 3.2 0.00 0.00 0.00 78 1014.0
20260905172621 30 117 1.6 3.2 0.00 0.00 0.00 78 1014.4
20260905172116 30 89 6.4 9.7 0.00 0.00 0.00 80 1014.0
20260905171612 31 77 1.6 3.2 0.00 0.00 0.00 78 1014.0
20260905171108 30 116 1.6 3.2 0.00 0.00 0.00 76 1014.0
20260905170604 30 81 11.3 12.9 0.00 0.00 0.00 77 1014.0
20260905170100 31 99 4.8 9.7 0.00 0.00 0.00 77 1014.0
20260905165600 30 117 4.8 8.0 0.00 0.00 0.00 77 1014.0
20260905165055 30 113 4.8 8.0 0.00 0.00 0.00 80 1014.4
20260905164549 30 95 4.8 14.5 0.00 0.00 0.00 79 1014.4
20260905164044 30 80 8.0 9.7 0.00 0.00 0.00 79 1014.4
20260905163540 30 91 4.8 8.0 0.00 0.00 0.00 81 1014.0
20260905163036 31 100 9.7 11.3 0.00 0.00 0.00 80 1014.7
20260905162532 31 98 8.0 11.3 0.00 0.00 0.00 79 1014.4
20260905162026 31 112 8.0 9.7 0.00 0.00 0.00 77 1014.4
20260905161526 31 221 6.4 9.7 0.00 0.00 0.00 77 1014.4
20260905161024 30 95 4.8 4.8 0.00 0.00 0.00 79 1014.4
20260905160523 30 112 6.4 9.7 0.00 0.00 0.00 81 1014.4
20260905160017 30 93 6.4 8.0 0.00 0.00 0.00 81 1014.0
20260905155517 30 94 3.2 3.2 0.00 0.00 0.00 82 1014.0
20260905155015 30 104 1.6 3.2 0.00 0.00 0.00 79 1014.0
20260905154511 30 108 3.2 4.8 0.00 0.00 0.00 82 1014.0
20260905154007 30 80 6.4 8.0 0.00 0.00 0.00 83 1014.4
20260905153503 30 108 8.0 9.7 0.00 0.00 0.00 83 1014.0
20260905153002 30 100 8.0 11.3 0.00 0.00 0.00 83 1014.0
20260905152502 30 60 1.6 3.2 0.00 0.00 0.00 82 1014.0
20260905151957 30 95 1.6 1.6 0.00 0.00 0.00 84 1014.0
20260905151453 30 91 9.7 12.9 0.00 0.00 0.00 84 1013.7
20260905150953 30 79 4.8 8.0 0.00 0.00 0.00 84 1013.7
20260905150448 28 101 8.0 12.9 0.00 0.00 0.00 86 1013.7
20260905145944 30 25 8.0 11.3 0.00 0.00 0.00 85 1013.7
20260905145439 30 81 1.6 1.6 0.00 0.00 0.00 83 1013.7
20260905144938 30 96 3.2 3.2 0.00 0.00 0.00 84 1013.7
20260905144434 30 41 3.2 8.0 0.00 0.00 0.00 84 1013.7
20260905143932 30 70 4.8 4.8 0.00 0.00 0.00 84 1013.7
20260905143427 28 92 4.8 4.8 0.00 0.00 0.00 85 1013.7
20260905142926 28 74 4.8 8.0 0.00 0.00 0.00 86 1013.7
20260905142425 28 67 6.4 9.7 0.00 0.00 0.00 87 1013.3
20260905141921 28 81 4.8 4.8 0.00 0.00 0.00 86 1013.3
20260905141416 28 77 3.2 3.2 0.00 0.00 0.00 87 1013.7
20260905140912 28 24 6.4 8.0 0.00 0.00 0.00 87 1013.7
20260905140407 28 64 3.2 4.8 0.00 0.00 0.00 87 1013.7
20260905135906 28 72 3.2 4.8 0.00 0.00 0.00 87 1013.7
20260905135402 28 63 6.4 9.7 0.00 0.00 0.00 86 1014.0
20260905134858 28 42 6.4 11.3 0.00 0.00 0.00 87 1014.4
20260905134356 28 71 11.3 12.9 0.00 0.00 0.00 85 1014.0
20260905133850 28 33 8.0 9.7 0.00 0.00 0.00 84 1014.0
20260905133346 28 30 8.0 8.0 0.00 0.00 0.00 83 1013.7
20260905132845 28 8 4.8 4.8 0.00 0.00 0.00 83 1013.7
20260905132341 28 33 6.4 8.0 0.00 0.00 0.00 83 1013.7
20260905131840 28 30 6.4 9.7 0.00 0.00 0.00 84 1013.3
20260905131336 27 1 6.4 8.0 0.00 0.00 0.00 86 1013.7
20260905130831 27 11 3.2 4.8 0.00 0.00 0.00 88 1013.3
20260905130330 27 11 3.2 3.2 0.00 0.00 0.00 89 1013.3
20260905125825 27 11 0.0 1.6 0.00 0.00 0.00 90 1013.3
20260905125320 27 11 4.8 4.8 0.00 0.00 0.00 90 1013.3
20260905124816 27 13 1.6 3.2 0.00 0.00 0.00 90 1013.0
20260905124312 27 13 3.2 3.2 0.00 0.00 0.00 90 1013.0
20260905123807 26 13 0.0 1.6 0.00 0.00 0.00 91 1013.3
20260905123304 26 13 1.6 1.6 0.00 0.00 0.00 91 1013.0
20260905122803 26 14 4.8 4.8 0.00 0.00 0.00 92 1013.0
20260905122306 26 67 1.6 1.6 0.00 0.00 0.00 93 1013.3
20260905121759 26 67 1.6 1.6 0.00 0.00 0.00 95 1013.0
20260905121255 25 67 0.0 0.0 0.00 0.00 0.00 96 1013.0
20260905120753 25 67 1.6 1.6 0.00 0.00 0.00 96 1013.0
20260905120253 25 67 1.6 1.6 0.00 0.00 0.00 96 1013.0
20260905115749 25 67 0.0 0.0 0.00 0.00 0.00 96 1012.7
20260905115248 25 67 0.0 0.0 0.00 0.00 0.00 96 1013.0
20260905114748 25 67 0.0 1.6 0.00 0.00 0.00 96 1012.7
20260905114247 25 67 0.0 0.0 0.00 0.00 0.00 96 1013.0
20260905113746 25 67 0.0 0.0 0.00 0.00 0.00 96 1013.0
20260905113242 25 67 0.0 0.0 0.00 0.00 0.00 96 1013.0
20260905112738 25 67 0.0 1.6 0.00 0.00 0.00 96 1012.7
20260905112238 25 67 0.0 0.0 0.00 0.00 0.00 96 1013.0
20260905111733 25 67 0.0 0.0 0.00 0.00 0.00 96 1012.7
20260905111227 25 67 1.6 1.6 0.00 0.00 0.00 96 1013.0
20260905110726 25 67 0.0 0.0 0.00 0.00 0.00 95 1012.7
20260905110221 25 67 0.0 0.0 0.00 0.00 0.00 95 1012.7
20260905105716 25 67 0.0 0.0 0.00 0.00 0.00 95 1012.7
20260905105215 25 67 0.0 0.0 0.00 0.00 0.00 95 1012.7
20260905104710 25 67 0.0 0.0 0.00 0.00 0.00 95 1012.7
20260905104206 25 67 0.0 0.0 0.00 0.00 0.00 95 1012.7
20260905103701 25 67 0.0 0.0 0.00 0.00 0.00 95 1012.7
20260905103157 25 67 0.0 0.0 0.00 0.00 0.00 94 1012.7
20260905102652 25 67 0.0 0.0 0.00 0.00 0.00 94 1013.0
20260905102149 25 67 0.0 0.0 0.00 0.00 0.00 94 1012.7
20260905101647 25 67 1.6 1.6 0.00 0.00 0.00 93 1012.7
20260905101146 25 67 1.6 1.6 0.00 0.00 0.00 93 1013.0
20260905100642 25 67 1.6 1.6 0.00 0.00 0.00 92 1012.7
20260905100137 26 67 0.0 0.0 0.00 0.00 0.00 92 1012.7
20260905095637 26 67 0.0 1.6 0.00 0.00 0.00 91 1013.0
20260905095137 26 68 1.6 3.2 0.00 0.00 0.00 91 1012.7
20260905094632 26 68 4.8 4.8 0.00 0.00 0.00 90 1013.0
20260905094131 26 70 1.6 1.6 0.00 0.00 0.00 89 1012.7
20260905093626 26 84 1.6 1.6 0.00 0.00 0.00 88 1012.7
20260905093123 27 76 4.8 8.0 0.00 0.00 0.00 87 1012.7
20260905092622 27 358 1.6 1.6 0.00 0.00 0.00 86 1012.7
20260905092118 27 357 4.8 8.0 0.00 0.00 0.00 86 1012.3
20260905091617 27 358 4.8 9.7 0.00 0.00 0.00 86 1012.7
20260905091112 27 353 4.8 4.8 0.00 0.00 0.00 86 1012.7
20260905090606 27 359 4.8 4.8 0.00 0.00 0.00 85 1012.7
20260905085600 27 359 1.6 3.2 0.00 0.00 0.00 86 1012.7
20260905085056 27 359 3.2 3.2 0.00 0.00 0.00 85 1012.7
20260905084556 27 359 3.2 3.2 0.00 0.00 0.00 85 1012.7
20260905084051 27 359 4.8 4.8 0.00 0.00 0.00 85 1012.7
20260905083550 27 359 3.2 3.2 0.00 0.00 0.00 85 1012.7
20260905083048 27 0 4.8 4.8 0.00 0.00 0.00 85 1012.7
20260905082542 27 0 3.2 3.2 0.00 0.00 0.00 84 1012.3
20260905082038 27 1 4.8 4.8 0.00 0.00 0.00 84 1012.7
20260905081537 27 0 4.8 4.8 0.00 0.00 0.00 84 1012.3
20260905081033 27 9 6.4 8.0 0.00 0.00 0.00 84 1012.7
20260905080533 27 356 4.8 4.8 0.00 0.00 0.00 84 1012.7
20260905080028 27 1 4.8 4.8 0.00 0.00 0.00 84 1012.3
20260905075527 27 0 6.4 9.7 0.00 0.00 0.00 84 1012.7
20260905075027 27 359 3.2 3.2 0.00 0.00 0.00 85 1012.7
20260905074521 27 357 8.0 11.3 0.00 0.00 0.00 85 1012.3
20260905074017 27 1 4.8 8.0 0.00 0.00 0.00 85 1012.7
20260905073512 27 3 3.2 3.2 0.00 0.00 0.00 85 1012.3
20260905073008 27 8 6.4 8.0 0.00 0.00 0.00 85 1012.3
20260905072501 27 15 6.4 9.7 0.00 0.00 0.00 86 1012.3
20260905071957 27 6 6.4 9.7 0.00 0.00 0.00 87 1012.7
20260905071454 27 354 4.8 8.0 0.00 0.00 0.00 86 1012.7
20260905070954 27 351 4.8 8.0 0.00 0.00 0.00 86 1012.7
20260905070450 27 358 6.4 9.7 0.00 0.00 0.00 85 1012.7
20260905065949 27 359 6.4 8.0 0.00 0.00 0.00 86 1012.7
20260905065448 27 354 3.2 4.8 0.00 0.00 0.00 86 1012.7
20260905064944 27 359 4.8 4.8 0.00 0.00 0.00 86 1012.7
20260905064443 27 352 4.8 4.8 0.00 0.00 0.00 86 1012.7
20260905063938 28 353 3.2 3.2 0.00 0.00 0.00 86 1012.7
20260905063433 28 353 1.6 1.6 0.00 0.00 0.00 86 1013.0
20260905062930 28 353 1.6 1.6 0.00 0.00 0.00 85 1012.7
20260905062429 28 348 3.2 3.2 0.00 0.00 0.00 85 1013.0
20260905061925 28 357 4.8 4.8 0.00 0.00 0.00 85 1013.0
20260905061424 28 339 3.2 3.2 0.00 0.00 0.00 85 1012.7
20260905060924 28 347 3.2 4.8 0.00 0.00 0.00 85 1013.0
20260905060420 28 346 1.6 3.2 0.00 0.00 0.00 85 1013.0
20260905055919 28 354 1.6 1.6 0.00 0.00 0.00 85 1013.0
20260905055415 28 2 4.8 4.8 0.00 0.00 0.00 85 1013.0
20260905054914 28 353 1.6 3.2 0.00 0.00 0.00 84 1013.0
20260905054410 28 1 3.2 3.2 0.00 0.00 0.00 84 1013.0
20260905053909 28 9 4.8 4.8 0.00 0.00 0.00 84 1013.0
20260905053404 28 352 6.4 8.0 0.00 0.00 0.00 83 1013.0
20260905052900 28 344 6.4 8.0 0.00 0.00 0.00 83 1013.0
20260905052400 28 343 6.4 8.0 0.00 0.00 0.00 83 1013.3
20260905051859 28 357 3.2 3.2 0.00 0.00 0.00 85 1013.0
20260905051355 28 357 3.2 3.2 0.00 0.00 0.00 85 1013.3
20260905050852 28 357 3.2 3.2 0.00 0.00 0.00 86 1013.3
20260905050348 28 357 0.0 1.6 0.00 0.00 0.00 86 1013.3
20260905045848 28 357 0.0 0.0 0.00 0.00 0.00 86 1013.3
20260905045343 28 357 0.0 1.6 0.00 0.00 0.00 85 1013.0
20260905044839 28 357 3.2 3.2 0.00 0.00 0.00 86 1013.3
20260905044334 28 357 0.0 1.6 0.00 0.00 0.00 86 1013.3
20260905043832 28 357 0.0 0.0 0.00 0.00 0.00 86 1013.3
20260905043327 28 357 1.6 1.6 0.00 0.00 0.00 86 1013.3
20260905042823 28 357 0.0 1.6 0.00 0.00 0.00 86 1013.7
20260905042322 28 357 3.2 3.2 0.00 0.00 0.00 85 1013.3
20260905041817 28 358 3.2 3.2 0.00 0.00 0.00 86 1013.3
20260905041314 28 358 0.0 0.0 0.00 0.00 0.00 86 1013.3
20260905040808 28 358 0.0 1.6 0.00 0.00 0.00 87 1013.3
20260905040307 28 358 0.0 0.0 0.00 0.00 0.00 88 1013.7
20260905035801 28 358 0.0 0.0 0.00 0.00 0.00 88 1013.3
20260905035257 27 358 0.0 0.0 0.00 0.00 0.00 89 1013.7
20260905034754 27 358 0.0 0.0 0.00 0.00 0.00 89 1013.3
20260905034254 27 358 0.0 0.0 0.00 0.00 0.00 89 1013.7
20260905033753 27 358 0.0 0.0 0.00 0.00 0.00 90 1013.7
20260905033248 27 358 0.0 0.0 0.00 0.00 0.00 90 1013.7
20260905032748 27 358 0.0 0.0 0.00 0.00 0.00 90 1013.7
20260905032243 27 358 0.0 0.0 0.00 0.00 0.00 90 1013.7
20260905031738 27 358 0.0 1.6 0.00 0.00 0.00 89 1013.3
20260905031234 27 358 1.6 3.2 0.00 0.00 0.00 89 1013.7
20260905030729 27 358 0.0 1.6 0.00 0.00 0.00 89 1014.0
20260905030224 27 358 0.0 0.0 0.00 0.00 0.00 88 1013.7
20260905025719 27 358 0.0 0.0 0.00 0.00 0.00 88 1013.7
20260905025214 27 358 0.0 0.0 0.00 0.00 0.00 88 1013.7
20260905024710 27 358 0.0 0.0 0.00 0.00 0.00 87 1013.7
20260905024206 28 358 0.0 0.0 0.00 0.00 0.00 87 1013.3
20260905023701 28 358 0.0 0.0 0.00 0.00 0.00 86 1013.7
20260905023200 28 358 0.0 0.0 0.00 0.00 0.00 86 1013.3